Météo par heure à Kyyanka

Ce jour, 4 Août, Mercredi

Heure Température Précipitation Vent Pression Humidité
00:00 +16°C° 0 mm 0 m/s 743 mmHg 60%
01:00 +15°C° 0 mm 0 m/s 743 mmHg 64%
02:00 +15°C° 0 mm 1 m/s 743 mmHg 69%
03:00 +15°C° 0 mm 1 m/s 743 mmHg 70%
04:00 +15°C° 0 mm 1 m/s 743 mmHg 71%
05:00 +15°C° 0 mm 1 m/s 743 mmHg 71%
06:00 +16°C° 0 mm 2 m/s 743 mmHg 67%
07:00 +18°C° 0 mm 2 m/s 743 mmHg 62%
08:00 +20°C° 0 mm 3 m/s 743 mmHg 58%
09:00 +22°C° 0 mm 3 m/s 743 mmHg 55%
10:00 +24°C° 0 mm 3 m/s 743 mmHg 51%
11:00 +26°C° 0 mm 4 m/s 743 mmHg 48%
12:00 +26°C° 0 mm 4 m/s 742 mmHg 47%
13:00 +27°C° 0 mm 4 m/s 742 mmHg 45%
14:00 +27°C° 0 mm 4 m/s 742 mmHg 46%
15:00 +27°C° 0 mm 4 m/s 742 mmHg 47%
16:00 +27°C° 0 mm 4 m/s 741 mmHg 49%
17:00 +26°C° 0 mm 3 m/s 741 mmHg 51%
18:00 +24°C° 1.7 mm 3 m/s 741 mmHg 65%
19:00 +20°C° 1.7 mm 2 m/s 741 mmHg 78%
20:00 +17°C° 1.7 mm 2 m/s 741 mmHg 92%
21:00 +17°C° 0.1 mm 2 m/s 741 mmHg 92%
22:00 +16°C° 0.1 mm 1 m/s 741 mmHg 91%
23:00 +16°C° 0.1 mm 1 m/s 741 mmHg 91%

Demain, 5 Août, Jeudi

Heure Température Précipitation Vent Pression Humidité
00:00 +16°C° 0 mm 1 m/s 741 mmHg 91%
01:00 +16°C° 0 mm 1 m/s 741 mmHg 90%
02:00 +16°C° 0 mm 1 m/s 741 mmHg 90%
03:00 +16°C° 0 mm 1 m/s 740 mmHg 90%
04:00 +16°C° 0 mm 1 m/s 740 mmHg 91%
05:00 +16°C° 0 mm 1 m/s 740 mmHg 91%
06:00 +18°C° 0 mm 1 m/s 740 mmHg 87%
07:00 +20°C° 0 mm 1 m/s 740 mmHg 83%
08:00 +21°C° 0 mm 1 m/s 740 mmHg 79%
09:00 +23°C° 0.2 mm 2 m/s 739 mmHg 73%
10:00 +25°C° 0.2 mm 2 m/s 739 mmHg 67%
11:00 +26°C° 0.2 mm 3 m/s 739 mmHg 61%
12:00 +27°C° 0.6 mm 2 m/s 739 mmHg 58%
13:00 +27°C° 0.6 mm 2 m/s 738 mmHg 56%
14:00 +28°C° 0.6 mm 2 m/s 738 mmHg 53%
15:00 +28°C° 0 mm 2 m/s 737 mmHg 52%
16:00 +29°C° 0 mm 2 m/s 737 mmHg 50%
17:00 +29°C° 0 mm 2 m/s 736 mmHg 49%
18:00 +27°C° 0.1 mm 3 m/s 736 mmHg 59%
19:00 +25°C° 0.1 mm 3 m/s 735 mmHg 69%
20:00 +22°C° 0.1 mm 4 m/s 734 mmHg 80%
21:00 +21°C° 4.4 mm 4 m/s 734 mmHg 84%
22:00 +20°C° 4.4 mm 4 m/s 734 mmHg 89%
23:00 +19°C° 4.4 mm 4 m/s 734 mmHg 94%

Après-demain, 6 Août, Vendredi

Heure Température Précipitation Vent Pression Humidité
00:00 +19°C° 0.8 mm 4 m/s 733 mmHg 94%
01:00 +19°C° 0.8 mm 4 m/s 733 mmHg 95%
02:00 +18°C° 0.8 mm 3 m/s 733 mmHg 95%
03:00 +18°C° 0.2 mm 3 m/s 732 mmHg 96%
04:00 +18°C° 0.2 mm 3 m/s 732 mmHg 96%
05:00 +18°C° 0.2 mm 3 m/s 732 mmHg 96%
06:00 +19°C° 0 mm 3 m/s 732 mmHg 92%
07:00 +20°C° 0 mm 3 m/s 732 mmHg 89%
08:00 +21°C° 0 mm 4 m/s 732 mmHg 85%
09:00 +22°C° 0 mm 4 m/s 733 mmHg 77%
10:00 +25°C° 0 mm 4 m/s 733 mmHg 68%
11:00 +26°C° 0 mm 4 m/s 733 mmHg 60%
12:00 +26°C° 0 mm 4 m/s 733 mmHg 59%
13:00 +26°C° 0 mm 4 m/s 733 mmHg 59%
14:00 +26°C° 0 mm 5 m/s 733 mmHg 58%
15:00 +26°C° 0 mm 5 m/s 733 mmHg 60%
16:00 +25°C° 0 mm 4 m/s 733 mmHg 62%
17:00 +25°C° 0 mm 4 m/s 734 mmHg 64%
18:00 +22°C° 0 mm 4 m/s 734 mmHg 69%
19:00 +21°C° 0 mm 4 m/s 734 mmHg 75%
20:00 +19°C° 0 mm 4 m/s 734 mmHg 81%
21:00 +18°C° 0 mm 3 m/s 735 mmHg 85%
22:00 +17°C° 0 mm 3 m/s 735 mmHg 89%
23:00 +16°C° 0 mm 3 m/s 736 mmHg 93%

7 Août, Samedi

Heure Température Précipitation Vent Pression Humidité
00:00 +16°C° 0 mm 3 m/s 736 mmHg 93%
01:00 +15°C° 0 mm 2 m/s 736 mmHg 94%
02:00 +14°C° 0 mm 2 m/s 736 mmHg 94%
03:00 +13°C° 0 mm 3 m/s 737 mmHg 92%
04:00 +14°C° 0 mm 3 m/s 737 mmHg 90%
05:00 +14°C° 0 mm 3 m/s 737 mmHg 88%
06:00 +14°C° 0 mm 3 m/s 738 mmHg 83%
07:00 +15°C° 0 mm 4 m/s 738 mmHg 79%
08:00 +17°C° 0 mm 4 m/s 739 mmHg 75%
09:00 +18°C° 0 mm 4 m/s 739 mmHg 68%
10:00 +19°C° 0 mm 4 m/s 739 mmHg 62%
11:00 +21°C° 0 mm 4 m/s 739 mmHg 55%
12:00 +22°C° 0 mm 4 m/s 739 mmHg 51%
13:00 +23°C° 0 mm 4 m/s 739 mmHg 47%
14:00 +25°C° 0 mm 4 m/s 739 mmHg 43%
15:00 +25°C° 0 mm 4 m/s 740 mmHg 45%
16:00 +25°C° 0 mm 3 m/s 740 mmHg 46%
17:00 +25°C° 0 mm 3 m/s 740 mmHg 48%
18:00 +23°C° 0 mm 2 m/s 740 mmHg 55%
19:00 +20°C° 0 mm 2 m/s 740 mmHg 62%
20:00 +19°C° 0 mm 2 m/s 740 mmHg 69%
21:00 +18°C° 0 mm 2 m/s 741 mmHg 71%
22:00 +18°C° 0 mm 2 m/s 741 mmHg 72%
23:00 +17°C° 0 mm 2 m/s 741 mmHg 73%

8 Août, Dimanche

Heure Température Précipitation Vent Pression Humidité
00:00 +17°C° 0 mm 2 m/s 741 mmHg 75%
01:00 +16°C° 0 mm 2 m/s 741 mmHg 76%
02:00 +16°C° 0 mm 2 m/s 741 mmHg 78%
03:00 +16°C° 0 mm 2 m/s 741 mmHg 79%
04:00 +16°C° 0 mm 2 m/s 741 mmHg 80%
05:00 +15°C° 0 mm 2 m/s 742 mmHg 81%
06:00 +17°C° 0 mm 2 m/s 742 mmHg 75%
07:00 +19°C° 0 mm 2 m/s 742 mmHg 69%
08:00 +21°C° 0 mm 2 m/s 742 mmHg 63%
09:00 +24°C° 0 mm 2 m/s 742 mmHg 58%
10:00 +25°C° 0 mm 3 m/s 742 mmHg 53%
11:00 +27°C° 0 mm 3 m/s 742 mmHg 49%
12:00 +28°C° 0 mm 3 m/s 742 mmHg 46%
13:00 +28°C° 0 mm 3 m/s 742 mmHg 44%
14:00 +29°C° 0 mm 3 m/s 742 mmHg 42%
15:00 +29°C° 0 mm 3 m/s 742 mmHg 43%
16:00 +29°C° 0 mm 2 m/s 742 mmHg 45%
17:00 +29°C° 0 mm 2 m/s 742 mmHg 46%
18:00 +27°C° 0 mm 2 m/s 742 mmHg 53%
19:00 +25°C° 0 mm 2 m/s 742 mmHg 59%
20:00 +23°C° 0 mm 2 m/s 742 mmHg 65%
21:00 +21°C° 0 mm 2 m/s 742 mmHg 68%
22:00 +20°C° 0 mm 2 m/s 742 mmHg 70%
23:00 +19°C° 0 mm 2 m/s 743 mmHg 72%

9 Août, Lundi

Heure Température Précipitation Vent Pression Humidité
00:00 +19°C° 0 mm 2 m/s 743 mmHg 73%
01:00 +19°C° 0 mm 2 m/s 742 mmHg 75%
02:00 +19°C° 0 mm 2 m/s 742 mmHg 76%
03:00 +18°C° 0 mm 2 m/s 742 mmHg 76%
04:00 +18°C° 0 mm 2 m/s 742 mmHg 76%
05:00 +17°C° 0 mm 2 m/s 742 mmHg 76%
06:00 +19°C° 0 mm 2 m/s 742 mmHg 71%
07:00 +20°C° 0 mm 3 m/s 743 mmHg 66%
08:00 +22°C° 0 mm 3 m/s 743 mmHg 62%
09:00 +24°C° 0 mm 3 m/s 743 mmHg 59%
10:00 +26°C° 0 mm 3 m/s 743 mmHg 56%
11:00 +27°C° 0 mm 4 m/s 743 mmHg 53%
12:00 +27°C° 0 mm 4 m/s 743 mmHg 55%
13:00 +27°C° 0 mm 4 m/s 743 mmHg 57%
14:00 +27°C° 0 mm 3 m/s 743 mmHg 59%
15:00 +26°C° 0 mm 4 m/s 743 mmHg 61%
16:00 +26°C° 0 mm 4 m/s 743 mmHg 64%
17:00 +26°C° 0 mm 4 m/s 743 mmHg 66%
18:00 +23°C° 0 mm 4 m/s 744 mmHg 71%
19:00 +22°C° 0 mm 3 m/s 744 mmHg 75%
20:00 +20°C° 0 mm 2 m/s 744 mmHg 79%
21:00 +20°C° 0 mm 3 m/s 744 mmHg 82%
22:00 +19°C° 0 mm 3 m/s 745 mmHg 85%
23:00 +18°C° 0 mm 3 m/s 745 mmHg 88%
Voir plus

Nous avons besoin de votre consentement

Meteoprog et ses fournisseurs de services peuvent stocker et accéder à des données personnelles telles que des cookies, des identifiants d'appareils ou d'autres technologies similaires sur votre appareil et traiter ces données pour personnaliser le contenu et les publicités, ainsi que pour fournir des fonctionnalités de médias sociaux et analyser le trafic.

  • Stocker et/ou accéder à des informations sur votre appareil

    Des cookies, des identifiants d'appareils ou d'autres informations peuvent être stockés ou accessibles sur votre appareil aux fins indiquées ci-dessus.

  • Annonces et contenus personnalisés, mesure des annonces et des contenus, connaissance de l'audience et développement de produits

    Les annonces et le contenu peuvent être personnalisés en fonction d'un profil. D'autres données peuvent être ajoutées pour mieux personnaliser les annonces et le contenu. Les performances des publicités et du contenu peuvent être mesurées. Il est possible d'obtenir des informations sur le public qui a vu les publicités et le contenu. Ces données peuvent être utilisées pour développer ou améliorer l'expérience de l'utilisateur, les systèmes et les logiciels.

En cliquant sur "J'accepte", vous autorisez l'utilisation de cookies, des identifiants d'appareils, des balises web ou d'autres technologies similaires. Vos paramètres peuvent être modifiés dans le navigateur de votre appareil.

Dans certains cas, des intérêts légitimes peuvent être invoqués plutôt qu'un consentement. Vous pouvez en savoir plus à ce sujet dans notre Politique de confidentialité et de cookies.